Time,TemperatureF,DewpointF,PressureIn,WindDirection,WindDirectionDegrees,WindSpeedMPH,WindSpeedGustMPH,Humidity,HourlyPrecipIn,Conditions,Clouds,dailyrainin,SoftwareType,DateUTC
2013-01-24 00:00:00,14.0,9.8,30.13,SSW,200,0.0,0.0,83,0.00,,---,0.00,VWS V14.00,2013-01-24 05:00:00,
2013-01-24 00:02:00,14.0,9.8,30.13,SSW,200,0.0,0.0,83,0.00,,---,0.00,VWS V14.00,2013-01-24 05:02:00,
2013-01-24 00:03:00,14.0,9.8,30.13,SSW,200,0.0,0.0,83,0.00,,---,0.00,VWS V14.00,2013-01-24 05:03:00,
2013-01-24 00:08:00,14.1,9.9,30.13,SSW,200,0.0,0.0,83,0.00,,---,0.00,VWS V14.00,2013-01-24 05:08:00,
2013-01-24 00:13:00,14.1,9.9,30.13,SSW,200,0.0,0.0,83,0.00,,---,0.00,VWS V14.00,2013-01-24 05:13:00,
2013-01-24 00:18:00,14.2,10.3,30.13,SSW,200,0.0,0.0,84,0.00,,---,0.00,VWS V14.00,2013-01-24 05:18:00,
2013-01-24 00:23:00,14.3,10.4,30.12,SSW,200,0.0,0.0,84,0.00,,---,0.00,VWS V14.00,2013-01-24 05:23:00,
2013-01-24 00:28:00,14.4,10.5,30.12,SSW,200,0.0,0.0,84,0.00,,---,0.00,VWS V14.00,2013-01-24 05:28:00,
2013-01-24 00:33:00,14.5,10.6,30.12,SSW,200,0.0,0.0,84,0.00,,---,0.00,VWS V14.00,2013-01-24 05:33:00,
2013-01-24 00:38:00,14.5,10.6,30.12,SSW,200,0.0,0.0,84,0.00,,---,0.00,VWS V14.00,2013-01-24 05:38:00,
2013-01-24 00:43:00,14.6,10.7,30.12,SSW,200,0.0,0.0,84,0.00,,---,0.00,VWS V14.00,2013-01-24 05:43:00,
2013-01-24 00:48:00,14.7,10.8,30.12,SSW,200,0.0,0.0,84,0.00,,---,0.00,VWS V14.00,2013-01-24 05:48:00,
2013-01-24 00:53:00,14.7,11.0,30.12,SSW,200,0.0,1.0,85,0.00,,---,0.00,VWS V14.00,2013-01-24 05:53:00,
2013-01-24 00:58:00,14.8,11.1,30.12,SSW,200,0.0,0.0,85,0.00,,---,0.00,VWS V14.00,2013-01-24 05:58:00,
2013-01-24 01:03:00,14.9,11.2,30.12,SSW,200,0.0,0.0,85,0.00,,---,0.00,VWS V14.00,2013-01-24 06:03:00,
2013-01-24 01:08:00,14.9,11.2,30.12,SSW,200,0.0,0.0,85,0.00,,---,0.00,VWS V14.00,2013-01-24 06:08:00,
2013-01-24 01:13:00,15.0,11.3,30.12,SSW,200,0.0,0.0,85,0.00,,---,0.00,VWS V14.00,2013-01-24 06:13:00,
2013-01-24 01:18:00,15.0,11.3,30.12,SSW,200,0.0,0.0,85,0.00,,---,0.00,VWS V14.00,2013-01-24 06:18:00,
2013-01-24 01:23:00,15.1,11.4,30.12,SSW,200,0.0,0.0,85,0.00,,---,0.00,VWS V14.00,2013-01-24 06:23:00,
2013-01-24 01:28:00,15.1,11.4,30.12,SSW,200,0.0,0.0,85,0.00,,---,0.00,VWS V14.00,2013-01-24 06:28:00,
2013-01-24 01:33:00,15.2,11.5,30.12,SSW,200,0.0,0.0,85,0.00,,---,0.00,VWS V14.00,2013-01-24 06:33:00,
2013-01-24 01:38:00,15.2,11.5,30.12,SSW,200,0.0,0.0,85,0.00,,---,0.00,VWS V14.00,2013-01-24 06:38:00,
2013-01-24 01:43:00,15.3,11.6,30.12,SSW,200,0.0,0.0,85,0.00,,---,0.00,VWS V14.00,2013-01-24 06:43:00,
2013-01-24 01:48:00,15.3,11.6,30.13,SSW,200,0.0,0.0,85,0.00,,---,0.00,VWS V14.00,2013-01-24 06:48:00,
2013-01-24 01:53:00,15.3,11.9,30.13,SSW,200,0.0,0.0,86,0.00,,---,0.00,VWS V14.00,2013-01-24 06:53:00,
2013-01-24 01:58:00,15.3,11.9,30.13,SSW,200,0.0,0.0,86,0.00,,---,0.00,VWS V14.00,2013-01-24 06:58:00,
2013-01-24 02:03:00,15.4,12.0,30.13,SSW,200,0.0,0.0,86,0.00,,---,0.00,VWS V14.00,2013-01-24 07:03:00,
2013-01-24 02:08:00,15.3,11.9,30.13,SSW,200,0.0,0.0,86,0.00,,---,0.00,VWS V14.00,2013-01-24 07:08:00,
2013-01-24 02:13:00,15.3,11.9,30.13,SSW,200,0.0,0.0,86,0.00,,---,0.00,VWS V14.00,2013-01-24 07:13:00,
2013-01-24 02:18:00,15.3,11.9,30.14,SSW,200,0.0,0.0,86,0.00,,---,0.00,VWS V14.00,2013-01-24 07:18:00,
2013-01-24 02:23:00,15.3,11.6,30.14,SSW,200,0.0,0.0,85,0.00,,---,0.00,VWS V14.00,2013-01-24 07:23:00,
2013-01-24 02:28:00,15.3,11.9,30.14,SSW,200,0.0,0.0,86,0.00,,---,0.00,VWS V14.00,2013-01-24 07:28:00,
2013-01-24 02:33:00,15.2,11.5,30.14,SSW,200,0.0,0.0,85,0.00,,---,0.00,VWS V14.00,2013-01-24 07:33:00,
2013-01-24 02:38:00,15.2,11.5,30.14,SSW,200,0.0,0.0,85,0.00,,---,0.00,VWS V14.00,2013-01-24 07:38:00,
2013-01-24 02:43:00,15.2,11.5,30.15,SSW,200,0.0,0.0,85,0.00,,---,0.00,VWS V14.00,2013-01-24 07:43:00,
2013-01-24 02:48:00,15.1,11.7,30.15,SSW,200,0.0,0.0,86,0.00,,---,0.00,VWS V14.00,2013-01-24 07:48:00,
2013-01-24 02:53:00,15.0,11.6,30.15,SSW,200,0.0,0.0,86,0.00,,---,0.00,VWS V14.00,2013-01-24 07:53:00,
2013-01-24 02:58:00,15.0,11.6,30.15,SSW,200,0.0,0.0,86,0.00,,---,0.00,VWS V14.00,2013-01-24 07:58:00,
2013-01-24 03:03:00,14.9,11.5,30.15,SSW,200,0.0,0.0,86,0.00,,---,0.00,VWS V14.00,2013-01-24 08:03:00,
2013-01-24 03:08:00,14.9,11.5,30.15,SSW,200,0.0,0.0,86,0.00,,---,0.00,VWS V14.00,2013-01-24 08:08:00,
2013-01-24 03:13:00,14.8,11.4,30.16,SSW,200,0.0,0.0,86,0.00,,---,0.00,VWS V14.00,2013-01-24 08:13:00,
2013-01-24 03:18:00,14.7,11.3,30.16,SSW,200,0.0,0.0,86,0.00,,---,0.00,VWS V14.00,2013-01-24 08:18:00,
2013-01-24 03:23:00,14.6,11.2,30.16,SSW,200,0.0,0.0,86,0.00,,---,0.00,VWS V14.00,2013-01-24 08:23:00,
2013-01-24 03:28:00,14.5,10.8,30.16,SSW,200,0.0,0.0,85,0.00,,---,0.00,VWS V14.00,2013-01-24 08:28:00,
2013-01-24 03:33:00,14.3,10.6,30.16,SSW,200,0.0,0.0,85,0.00,,---,0.00,VWS V14.00,2013-01-24 08:33:00,
2013-01-24 03:38:00,14.1,10.4,30.17,SSW,200,0.0,0.0,85,0.00,,---,0.00,VWS V14.00,2013-01-24 08:38:00,
2013-01-24 03:43:00,13.9,10.2,30.17,SSW,200,0.0,0.0,85,0.00,,---,0.00,VWS V14.00,2013-01-24 08:43:00,
2013-01-24 03:48:00,13.7,10.0,30.17,SSW,200,0.0,0.0,85,0.00,,---,0.00,VWS V14.00,2013-01-24 08:48:00,
2013-01-24 03:53:00,13.5,9.8,30.17,SSW,200,0.0,0.0,85,0.00,,---,0.00,VWS V14.00,2013-01-24 08:53:00,
2013-01-24 03:58:00,13.2,9.6,30.17,SSW,200,0.0,0.0,85,0.00,,---,0.00,VWS V14.00,2013-01-24 08:58:00,
2013-01-24 04:03:00,13.1,9.4,30.18,SSW,200,0.0,0.0,85,0.00,,---,0.00,VWS V14.00,2013-01-24 09:03:00,
2013-01-24 04:08:00,12.8,9.1,30.18,SSW,200,0.0,0.0,85,0.00,,---,0.00,VWS V14.00,2013-01-24 09:08:00,
2013-01-24 04:13:00,12.6,9.0,30.18,SSW,200,0.0,0.0,85,0.00,,---,0.00,VWS V14.00,2013-01-24 09:13:00,
2013-01-24 04:18:00,12.4,8.8,30.19,SSW,200,0.0,0.0,85,0.00,,---,0.00,VWS V14.00,2013-01-24 09:18:00,
2013-01-24 04:23:00,12.2,8.6,30.19,SSW,200,0.0,0.0,85,0.00,,---,0.00,VWS V14.00,2013-01-24 09:23:00,
2013-01-24 04:28:00,12.0,8.4,30.19,SSW,200,0.0,0.0,85,0.00,,---,0.00,VWS V14.00,2013-01-24 09:28:00,
2013-01-24 04:33:00,11.9,8.3,30.19,SSW,200,0.0,0.0,85,0.00,,---,0.00,VWS V14.00,2013-01-24 09:33:00,
2013-01-24 04:38:00,11.9,8.3,30.20,SSW,200,0.0,0.0,85,0.00,,---,0.00,VWS V14.00,2013-01-24 09:38:00,
2013-01-24 04:43:00,12.0,8.6,30.20,SW,217,0.0,1.0,86,0.00,,---,0.00,VWS V14.00,2013-01-24 09:43:00,
2013-01-24 04:48:00,12.1,8.7,30.20,SW,232,0.0,1.0,86,0.00,,---,0.00,VWS V14.00,2013-01-24 09:48:00,
2013-01-24 04:53:00,12.4,9.0,30.20,WSW,239,0.0,1.0,86,0.00,,---,0.00,VWS V14.00,2013-01-24 09:53:00,
2013-01-24 04:58:00,12.8,9.7,30.21,WSW,251,1.0,4.0,87,0.00,,---,0.00,VWS V14.00,2013-01-24 09:58:00,
2013-01-24 05:03:00,13.2,10.1,30.21,WSW,253,1.0,3.0,87,0.00,,---,0.00,VWS V14.00,2013-01-24 10:03:00,
2013-01-24 05:08:00,13.6,10.5,30.21,WSW,253,0.0,2.0,87,0.00,,---,0.00,VWS V14.00,2013-01-24 10:08:00,
2013-01-24 05:13:00,13.9,11.0,30.22,WSW,240,1.0,2.0,88,0.00,,---,0.00,VWS V14.00,2013-01-24 10:13:00,
2013-01-24 05:18:00,14.2,11.3,30.22,SW,227,1.0,2.0,88,0.00,,---,0.00,VWS V14.00,2013-01-24 10:18:00,
2013-01-24 05:23:00,14.4,11.5,30.22,WNW,301,0.0,4.0,88,0.00,,---,0.00,VWS V14.00,2013-01-24 10:23:00,
2013-01-24 05:28:00,14.5,11.6,30.23,SW,229,0.0,2.0,88,0.00,,---,0.00,VWS V14.00,2013-01-24 10:28:00,
2013-01-24 05:33:00,14.6,11.7,30.23,NNE,16,0.0,2.0,88,0.00,,---,0.00,VWS V14.00,2013-01-24 10:33:00,
2013-01-24 05:38:00,14.6,11.7,30.23,NW,309,0.0,1.0,88,0.00,,---,0.00,VWS V14.00,2013-01-24 10:38:00,
2013-01-24 05:44:00,14.6,11.7,30.24,WNW,286,0.0,2.0,88,0.00,,---,0.00,VWS V14.00,2013-01-24 10:44:00,
2013-01-24 05:49:00,14.6,11.7,30.24,SW,232,0.0,4.0,88,0.00,,---,0.00,VWS V14.00,2013-01-24 10:49:00,
2013-01-24 05:54:00,14.6,11.7,30.25,WNW,290,0.0,7.0,88,0.00,,---,0.00,VWS V14.00,2013-01-24 10:54:00,
2013-01-24 05:58:00,14.5,11.6,30.25,West,279,0.0,4.0,88,0.00,,---,0.00,VWS V14.00,2013-01-24 10:58:00,
2013-01-24 06:04:00,14.5,11.3,30.26,WNW,291,0.0,4.0,87,0.00,,---,0.00,VWS V14.00,2013-01-24 11:04:00,
2013-01-24 06:09:00,14.5,11.3,30.26,WNW,294,4.0,4.0,87,0.00,,---,0.00,VWS V14.00,2013-01-24 11:09:00,
2013-01-24 06:14:00,14.5,11.3,30.27,WNW,300,0.0,3.0,87,0.00,,---,0.00,VWS V14.00,2013-01-24 11:14:00,
2013-01-24 06:19:00,14.5,11.3,30.26,WNW,283,0.0,6.0,87,0.00,,---,0.00,VWS V14.00,2013-01-24 11:19:00,
2013-01-24 06:24:00,14.5,11.3,30.27,West,279,0.0,2.0,87,0.00,,---,0.00,VWS V14.00,2013-01-24 11:24:00,
2013-01-24 06:29:00,14.5,11.3,30.27,WSW,248,0.0,3.0,87,0.00,,---,0.00,VWS V14.00,2013-01-24 11:29:00,
2013-01-24 06:34:00,14.4,11.2,30.28,SW,226,0.0,3.0,87,0.00,,---,0.00,VWS V14.00,2013-01-24 11:34:00,
2013-01-24 06:39:00,14.4,11.2,30.29,SSW,213,2.0,4.0,87,0.00,,---,0.00,VWS V14.00,2013-01-24 11:39:00,
2013-01-24 06:44:00,14.4,11.2,30.29,SW,219,1.0,1.0,87,0.00,,---,0.00,VWS V14.00,2013-01-24 11:44:00,
2013-01-24 06:49:00,14.3,11.1,30.29,WSW,258,0.0,4.0,87,0.00,,---,0.00,VWS V14.00,2013-01-24 11:49:00,
2013-01-24 06:54:00,14.2,11.1,30.30,WSW,258,0.0,1.0,87,0.00,,---,0.00,VWS V14.00,2013-01-24 11:54:00,
2013-01-24 06:59:00,14.0,10.9,30.30,WSW,258,0.0,2.0,87,0.00,,---,0.00,VWS V14.00,2013-01-24 11:59:00,
2013-01-24 07:04:00,13.9,10.8,30.31,West,263,1.0,2.0,87,0.00,,---,0.00,VWS V14.00,2013-01-24 12:04:00,
2013-01-24 07:09:00,13.8,10.6,30.31,SSW,213,1.0,1.0,87,0.00,,---,0.00,VWS V14.00,2013-01-24 12:09:00,
2013-01-24 07:14:00,13.7,10.6,30.31,WSW,238,0.0,1.0,87,0.00,,---,0.00,VWS V14.00,2013-01-24 12:14:00,
2013-01-24 07:19:00,13.6,10.5,30.32,SW,235,0.0,1.0,87,0.00,,---,0.00,VWS V14.00,2013-01-24 12:19:00,
2013-01-24 07:24:00,13.4,10.3,30.32,SW,225,0.0,2.0,87,0.00,,---,0.00,VWS V14.00,2013-01-24 12:24:00,
2013-01-24 07:29:00,13.3,10.2,30.33,WSW,248,0.0,4.0,87,0.00,,---,0.00,VWS V14.00,2013-01-24 12:29:00,
2013-01-24 07:34:00,13.2,10.1,30.34,SSE,167,0.0,1.0,87,0.00,,---,0.00,VWS V14.00,2013-01-24 12:34:00,
2013-01-24 07:39:00,13.1,10.0,30.34,West,277,0.0,4.0,87,0.00,,---,0.00,VWS V14.00,2013-01-24 12:39:00,
2013-01-24 07:44:00,13.2,10.1,30.34,WSW,240,0.0,1.0,87,0.00,,---,0.00,VWS V14.00,2013-01-24 12:44:00,
2013-01-24 07:49:00,13.1,10.0,30.34,SW,215,0.0,4.0,87,0.00,,---,0.00,VWS V14.00,2013-01-24 12:49:00,
2013-01-24 07:54:00,13.1,10.0,30.35,SW,215,0.0,1.0,87,0.00,,---,0.00,VWS V14.00,2013-01-24 12:54:00,
2013-01-24 07:59:00,13.1,10.0,30.35,West,281,0.0,2.0,87,0.00,,---,0.00,VWS V14.00,2013-01-24 12:59:00,
2013-01-24 08:04:00,13.1,10.0,30.36,West,262,3.0,3.0,87,0.00,,---,0.00,VWS V14.00,2013-01-24 13:04:00,
2013-01-24 08:09:00,13.1,10.0,30.37,West,261,0.0,2.0,87,0.00,,---,0.00,VWS V14.00,2013-01-24 13:09:00,
2013-01-24 08:14:00,13.1,10.0,30.37,West,261,0.0,1.0,87,0.00,,---,0.00,VWS V14.00,2013-01-24 13:14:00,
2013-01-24 08:19:00,13.1,10.0,30.37,West,280,0.0,4.0,87,0.00,,---,0.00,VWS V14.00,2013-01-24 13:19:00,
2013-01-24 08:24:00,13.1,10.0,30.38,West,280,0.0,1.0,87,0.00,,---,0.00,VWS V14.00,2013-01-24 13:24:00,
2013-01-24 08:29:00,13.1,10.0,30.38,West,264,0.0,2.0,87,0.00,,---,0.00,VWS V14.00,2013-01-24 13:29:00,
2013-01-24 08:34:00,13.2,10.1,30.38,SSW,192,0.0,2.0,87,0.00,,---,0.00,VWS V14.00,2013-01-24 13:34:00,
2013-01-24 08:39:00,13.3,10.2,30.39,West,270,0.0,2.0,87,0.00,,---,0.00,VWS V14.00,2013-01-24 13:39:00,
2013-01-24 08:44:00,13.5,10.4,30.39,NW,320,1.0,3.0,87,0.00,,---,0.00,VWS V14.00,2013-01-24 13:44:00,
2013-01-24 08:49:00,13.9,10.8,30.40,West,269,0.0,2.0,87,0.00,,---,0.00,VWS V14.00,2013-01-24 13:49:00,
2013-01-24 08:54:00,14.2,11.3,30.40,WNW,294,0.0,5.0,88,0.00,,---,0.00,VWS V14.00,2013-01-24 13:54:00,
2013-01-24 08:59:00,15.1,12.2,30.41,West,279,0.0,5.0,88,0.00,,---,0.00,VWS V14.00,2013-01-24 13:59:00,
2013-01-24 09:04:00,15.8,12.6,30.41,NW,304,2.0,2.0,87,0.00,,---,0.00,VWS V14.00,2013-01-24 14:04:00,
2013-01-24 09:09:00,16.2,12.8,30.41,West,273,0.0,2.0,86,0.00,,---,0.00,VWS V14.00,2013-01-24 14:09:00,
2013-01-24 09:14:00,16.4,12.7,30.42,West,275,0.0,6.0,85,0.00,,---,0.00,VWS V14.00,2013-01-24 14:14:00,
2013-01-24 09:19:00,16.6,12.6,30.42,NW,304,0.0,6.0,84,0.00,,---,0.00,VWS V14.00,2013-01-24 14:19:00,
2013-01-24 09:24:00,17.0,13.0,30.42,WNW,285,3.0,6.0,84,0.00,,---,0.00,VWS V14.00,2013-01-24 14:24:00,
2013-01-24 09:29:00,17.0,12.7,30.43,NNW,334,2.0,9.0,83,0.00,,---,0.00,VWS V14.00,2013-01-24 14:29:00,
2013-01-24 09:34:00,17.4,12.9,30.43,WNW,282,0.0,4.0,82,0.00,,---,0.00,VWS V14.00,2013-01-24 14:34:00,
2013-01-24 09:39:00,17.6,13.1,30.43,West,264,3.0,5.0,82,0.00,,---,0.00,VWS V14.00,2013-01-24 14:39:00,
2013-01-24 09:44:00,17.5,12.7,30.43,WNW,285,2.0,6.0,81,0.00,,---,0.00,VWS V14.00,2013-01-24 14:44:00,
2013-01-24 09:49:00,18.1,13.5,30.44,West,275,1.0,6.0,82,0.00,,---,0.00,VWS V14.00,2013-01-24 14:49:00,
2013-01-24 09:54:00,18.2,13.4,30.44,West,276,0.0,7.0,81,0.00,,---,0.00,VWS V14.00,2013-01-24 14:54:00,
2013-01-24 09:59:00,18.0,12.9,30.44,WNW,293,2.0,7.0,80,0.00,,---,0.00,VWS V14.00,2013-01-24 14:59:00,
2013-01-24 10:04:00,18.2,13.1,30.44,WNW,288,0.0,7.0,80,0.00,,---,0.00,VWS V14.00,2013-01-24 15:04:00,
2013-01-24 10:09:00,18.2,13.1,30.45,WNW,297,0.0,6.0,80,0.00,,---,0.00,VWS V14.00,2013-01-24 15:09:00,
2013-01-24 10:14:00,18.1,12.7,30.45,WNW,290,0.0,5.0,79,0.00,,---,0.00,VWS V14.00,2013-01-24 15:14:00,
2013-01-24 10:19:00,18.6,13.2,30.46,West,281,1.0,10.0,79,0.00,,---,0.00,VWS V14.00,2013-01-24 15:19:00,
2013-01-24 10:24:00,18.8,13.1,30.46,NW,314,1.0,6.0,78,0.00,,---,0.00,VWS V14.00,2013-01-24 15:24:00,
2013-01-24 10:29:00,18.9,12.9,30.46,WNW,286,5.0,6.0,77,0.00,,---,0.00,VWS V14.00,2013-01-24 15:29:00,
2013-01-24 10:34:00,18.8,12.5,30.47,NW,314,4.0,11.0,76,0.00,,---,0.00,VWS V14.00,2013-01-24 15:34:00,
2013-01-24 10:39:00,19.1,12.5,30.47,West,281,2.0,6.0,75,0.00,,---,0.00,VWS V14.00,2013-01-24 15:39:00,
2013-01-24 10:44:00,19.3,12.4,30.48,WNW,286,0.0,6.0,74,0.00,,---,0.00,VWS V14.00,2013-01-24 15:44:00,
2013-01-24 10:49:00,19.3,12.4,30.48,WSW,237,0.0,8.0,74,0.00,,---,0.00,VWS V14.00,2013-01-24 15:49:00,
2013-01-24 10:54:00,19.2,12.3,30.49,West,273,1.0,4.0,74,0.00,,---,0.00,VWS V14.00,2013-01-24 15:54:00,
2013-01-24 10:59:00,19.1,12.2,30.49,North,5,0.0,6.0,74,0.00,,---,0.00,VWS V14.00,2013-01-24 15:59:00,
2013-01-24 11:04:00,20.1,13.2,30.50,WNW,292,1.0,11.0,74,0.00,,---,0.00,VWS V14.00,2013-01-24 16:04:00,
2013-01-24 11:09:00,20.4,12.5,30.49,WNW,300,1.0,5.0,71,0.00,,---,0.00,VWS V14.00,2013-01-24 16:09:00,
2013-01-24 11:14:00,20.3,14.0,30.50,WNW,290,7.0,7.0,76,0.00,,---,0.00,VWS V14.00,2013-01-24 16:14:00,
2013-01-24 11:19:00,20.1,11.9,30.50,West,278,2.0,13.0,70,0.00,,---,0.00,VWS V14.00,2013-01-24 16:19:00,
2013-01-24 11:24:00,20.5,12.3,30.50,WNW,300,4.0,7.0,70,0.00,,---,0.00,VWS V14.00,2013-01-24 16:24:00,
2013-01-24 11:29:00,20.6,12.1,30.50,NW,312,3.0,6.0,69,0.00,,---,0.00,VWS V14.00,2013-01-24 16:29:00,
2013-01-24 11:34:00,20.4,11.5,30.50,WNW,288,2.0,5.0,68,0.00,,---,0.00,VWS V14.00,2013-01-24 16:34:00,
2013-01-24 11:39:00,20.4,11.9,30.51,WNW,293,0.0,7.0,69,0.00,,---,0.00,VWS V14.00,2013-01-24 16:39:00,
2013-01-24 11:44:00,20.3,11.4,30.51,NW,310,1.0,7.0,68,0.00,,---,0.00,VWS V14.00,2013-01-24 16:44:00,
2013-01-24 11:49:00,20.6,11.7,30.51,West,275,2.0,9.0,68,0.00,,---,0.00,VWS V14.00,2013-01-24 16:49:00,
2013-01-24 11:54:00,20.6,11.4,30.51,West,276,6.0,12.0,67,0.00,,---,0.00,VWS V14.00,2013-01-24 16:54:00,
2013-01-24 11:59:00,20.5,10.6,30.51,West,281,1.0,9.0,65,0.00,,---,0.00,VWS V14.00,2013-01-24 16:59:00,
2013-01-24 12:04:00,20.5,11.3,30.51,West,277,3.0,11.0,67,0.00,,---,0.00,VWS V14.00,2013-01-24 17:04:00,
2013-01-24 12:09:00,20.4,11.2,30.51,West,267,4.0,7.0,67,0.00,,---,0.00,VWS V14.00,2013-01-24 17:09:00,
2013-01-24 12:14:00,21.0,12.8,30.51,West,266,2.0,6.0,70,0.00,,---,0.00,VWS V14.00,2013-01-24 17:14:00,
2013-01-24 12:19:00,21.4,12.8,30.52,WNW,285,0.0,10.0,69,0.00,,---,0.00,VWS V14.00,2013-01-24 17:19:00,
2013-01-24 12:24:00,20.8,12.6,30.51,WNW,282,11.0,12.0,70,0.00,,---,0.00,VWS V14.00,2013-01-24 17:24:00,
2013-01-24 12:29:00,20.4,13.1,30.52,WNW,294,2.0,13.0,73,0.00,,---,0.00,VWS V14.00,2013-01-24 17:29:00,
2013-01-24 12:34:00,20.6,13.3,30.51,West,281,0.0,9.0,73,0.00,,---,0.00,VWS V14.00,2013-01-24 17:34:00,
2013-01-24 12:39:00,21.8,14.5,30.51,WNW,287,3.0,4.0,73,0.00,,---,0.00,VWS V14.00,2013-01-24 17:39:00,
2013-01-24 12:44:00,22.4,14.1,30.51,WNW,283,3.0,10.0,70,0.00,,---,0.00,VWS V14.00,2013-01-24 17:44:00,
2013-01-24 12:49:00,22.1,12.8,30.51,NW,304,1.0,11.0,67,0.00,,---,0.00,VWS V14.00,2013-01-24 17:49:00,
2013-01-24 12:54:00,21.4,12.5,30.51,WSW,254,0.0,9.0,68,0.00,,---,0.00,VWS V14.00,2013-01-24 17:54:00,
2013-01-24 12:59:00,20.9,13.6,30.51,WNW,286,8.0,14.0,73,0.00,,---,0.00,VWS V14.00,2013-01-24 17:59:00,
2013-01-24 13:04:00,20.3,13.7,30.51,WNW,289,1.0,8.0,75,0.00,,---,0.00,VWS V14.00,2013-01-24 18:04:00,
2013-01-24 13:09:00,20.0,14.0,30.51,WNW,297,5.0,10.0,77,0.00,,---,0.00,VWS V14.00,2013-01-24 18:09:00,
2013-01-24 13:14:00,20.7,15.2,30.51,WNW,290,2.0,6.0,79,0.00,,---,0.00,VWS V14.00,2013-01-24 18:14:00,
2013-01-24 13:19:00,21.1,15.0,30.50,West,279,0.0,6.0,77,0.00,,---,0.00,VWS V14.00,2013-01-24 18:19:00,
2013-01-24 13:24:00,21.1,14.4,30.50,NW,307,2.0,5.0,75,0.00,,---,0.00,VWS V14.00,2013-01-24 18:24:00,
2013-01-24 13:29:00,21.1,13.8,30.50,WNW,295,0.0,5.0,73,0.00,,---,0.00,VWS V14.00,2013-01-24 18:29:00,
2013-01-24 13:34:00,21.2,13.9,30.50,West,259,0.0,5.0,73,0.00,,---,0.00,VWS V14.00,2013-01-24 18:34:00,
2013-01-24 13:39:00,21.7,13.8,30.50,SW,223,0.0,6.0,71,0.00,,---,0.00,VWS V14.00,2013-01-24 18:39:00,
2013-01-24 13:44:00,21.9,13.6,30.50,WSW,244,2.0,11.0,70,0.00,,---,0.00,VWS V14.00,2013-01-24 18:44:00,
2013-01-24 13:49:00,21.4,12.8,30.50,WNW,296,1.0,9.0,69,0.00,,---,0.00,VWS V14.00,2013-01-24 18:49:00,
2013-01-24 13:54:00,21.0,13.4,30.51,WNW,290,0.0,9.0,72,0.00,,---,0.00,VWS V14.00,2013-01-24 18:54:00,
2013-01-24 13:59:00,22.1,15.4,30.50,NW,305,0.0,5.0,75,0.00,,---,0.00,VWS V14.00,2013-01-24 18:59:00,
2013-01-24 14:04:00,23.2,15.2,30.50,West,264,1.0,4.0,71,0.00,,---,0.00,VWS V14.00,2013-01-24 19:04:00,
2013-01-24 14:09:00,24.7,15.7,30.50,West,269,2.0,7.0,68,0.00,,---,0.00,VWS V14.00,2013-01-24 19:09:00,
2013-01-24 14:14:00,24.2,12.7,30.50,WNW,294,4.0,14.0,61,0.00,,---,0.00,VWS V14.00,2013-01-24 19:14:00,
2013-01-24 14:19:00,23.1,12.4,30.51,WNW,284,7.0,7.0,63,0.00,,---,0.00,VWS V14.00,2013-01-24 19:19:00,
2013-01-24 14:24:00,22.0,12.4,30.51,WNW,284,4.0,16.0,66,0.00,,---,0.00,VWS V14.00,2013-01-24 19:24:00,
2013-01-24 14:29:00,21.5,13.2,30.51,West,273,4.0,9.0,70,0.00,,---,0.00,VWS V14.00,2013-01-24 19:29:00,
2013-01-24 14:34:00,20.8,12.6,30.51,West,277,2.0,6.0,70,0.00,,---,0.00,VWS V14.00,2013-01-24 19:34:00,
2013-01-24 14:39:00,21.1,13.2,30.51,West,277,0.0,4.0,71,0.00,,---,0.00,VWS V14.00,2013-01-24 19:39:00,
2013-01-24 14:44:00,22.3,14.0,30.51,West,277,0.0,3.0,70,0.00,,---,0.00,VWS V14.00,2013-01-24 19:44:00,
2013-01-24 14:49:00,23.8,14.1,30.51,West,277,1.0,3.0,66,0.00,,---,0.00,VWS V14.00,2013-01-24 19:49:00,
2013-01-24 14:54:00,23.8,12.3,30.52,WNW,297,10.0,10.0,61,0.00,,---,0.00,VWS V14.00,2013-01-24 19:54:00,
2013-01-24 14:59:00,23.9,11.7,30.52,WNW,286,2.0,10.0,59,0.00,,---,0.00,VWS V14.00,2013-01-24 19:59:00,
2013-01-24 15:04:00,23.8,10.0,30.52,SW,229,4.0,11.0,55,0.00,,---,0.00,VWS V14.00,2013-01-24 20:04:00,
2013-01-24 15:09:00,24.0,9.8,30.52,WNW,296,3.0,6.0,54,0.00,,---,0.00,VWS V14.00,2013-01-24 20:09:00,
2013-01-24 15:14:00,23.8,7.9,30.52,NNW,338,4.0,18.0,50,0.00,,---,0.00,VWS V14.00,2013-01-24 20:14:00,
2013-01-24 15:19:00,22.9,7.1,30.53,WNW,284,2.0,9.0,50,0.00,,---,0.00,VWS V14.00,2013-01-24 20:19:00,
2013-01-24 15:24:00,22.2,6.4,30.53,NW,309,2.0,5.0,50,0.00,,---,0.00,VWS V14.00,2013-01-24 20:24:00,
2013-01-24 15:29:00,22.1,5.9,30.53,NW,309,6.0,12.0,49,0.00,,---,0.00,VWS V14.00,2013-01-24 20:29:00,
2013-01-24 15:34:00,22.3,6.1,30.53,NNW,327,12.0,12.0,49,0.00,,---,0.00,VWS V14.00,2013-01-24 20:34:00,
2013-01-24 15:39:00,22.2,5.5,30.53,NW,318,9.0,15.0,48,0.00,,---,0.00,VWS V14.00,2013-01-24 20:39:00,
2013-01-24 15:44:00,21.8,5.1,30.53,West,269,4.0,11.0,48,0.00,,---,0.00,VWS V14.00,2013-01-24 20:44:00,
2013-01-24 15:49:00,21.5,5.3,30.53,WNW,284,2.0,6.0,49,0.00,,---,0.00,VWS V14.00,2013-01-24 20:49:00,
2013-01-24 15:54:00,21.3,4.7,30.53,NW,307,4.0,11.0,48,0.00,,---,0.00,VWS V14.00,2013-01-24 20:54:00,
2013-01-24 15:59:00,21.0,4.8,30.53,WNW,300,4.0,7.0,49,0.00,,---,0.00,VWS V14.00,2013-01-24 20:59:00,
2013-01-24 16:04:00,20.8,4.2,30.53,WNW,296,0.0,3.0,48,0.00,,---,0.00,VWS V14.00,2013-01-24 21:04:00,
2013-01-24 16:09:00,20.7,4.6,30.53,WNW,296,1.0,2.0,49,0.00,,---,0.00,VWS V14.00,2013-01-24 21:09:00,
2013-01-24 16:14:00,20.6,4.0,30.53,SW,232,2.0,4.0,48,0.00,,---,0.00,VWS V14.00,2013-01-24 21:14:00,
2013-01-24 16:19:00,20.8,4.7,30.54,NW,317,3.0,9.0,49,0.00,,---,0.00,VWS V14.00,2013-01-24 21:19:00,
2013-01-24 16:24:00,21.1,4.9,30.54,NW,310,2.0,7.0,49,0.00,,---,0.00,VWS V14.00,2013-01-24 21:24:00,
2013-01-24 16:29:00,21.0,3.9,30.54,WNW,298,2.0,7.0,47,0.00,,---,0.00,VWS V14.00,2013-01-24 21:29:00,
2013-01-24 16:34:00,21.1,4.5,30.55,North,360,0.0,5.0,48,0.00,,---,0.00,VWS V14.00,2013-01-24 21:34:00,
2013-01-24 16:39:00,21.1,3.6,30.54,WNW,295,0.0,5.0,46,0.00,,---,0.00,VWS V14.00,2013-01-24 21:39:00,
2013-01-24 16:44:00,21.0,3.5,30.54,NE,51,3.0,9.0,46,0.00,,---,0.00,VWS V14.00,2013-01-24 21:44:00,
2013-01-24 16:49:00,20.8,3.8,30.54,NW,313,0.0,6.0,47,0.00,,---,0.00,VWS V14.00,2013-01-24 21:49:00,
2013-01-24 16:54:00,20.6,3.1,30.53,WNW,290,0.0,6.0,46,0.00,,---,0.00,VWS V14.00,2013-01-24 21:54:00,
2013-01-24 16:59:00,20.3,2.8,30.54,West,267,6.0,9.0,46,0.00,,---,0.00,VWS V14.00,2013-01-24 21:59:00,
2013-01-24 17:04:00,20.0,3.0,30.55,NW,304,0.0,6.0,47,0.00,,---,0.00,VWS V14.00,2013-01-24 22:04:00,
2013-01-24 17:09:00,19.8,2.4,30.55,NE,41,0.0,3.0,46,0.00,,---,0.00,VWS V14.00,2013-01-24 22:09:00,
2013-01-24 17:14:00,19.8,2.4,30.56,West,267,0.0,7.0,46,0.00,,---,0.00,VWS V14.00,2013-01-24 22:14:00,
2013-01-24 17:19:00,19.6,2.7,30.56,North,5,0.0,2.0,47,0.00,,---,0.00,VWS V14.00,2013-01-24 22:19:00,
2013-01-24 17:24:00,19.3,2.4,30.56,NW,318,1.0,5.0,47,0.00,,---,0.00,VWS V14.00,2013-01-24 22:24:00,
2013-01-24 17:29:00,19.1,2.2,30.56,NW,313,0.0,3.0,47,0.00,,---,0.00,VWS V14.00,2013-01-24 22:29:00,
2013-01-24 17:34:00,19.0,2.1,30.56,NW,313,0.0,2.0,47,0.00,,---,0.00,VWS V14.00,2013-01-24 22:34:00,
2013-01-24 17:39:00,18.5,3.0,30.56,NW,313,0.0,0.0,50,0.00,,---,0.00,VWS V14.00,2013-01-24 22:39:00,
2013-01-24 17:44:00,17.9,3.3,30.57,NW,313,0.0,0.0,52,0.00,,---,0.00,VWS V14.00,2013-01-24 22:44:00,
2013-01-24 17:49:00,17.1,3.3,30.57,NW,313,0.0,2.0,54,0.00,,---,0.00,VWS V14.00,2013-01-24 22:49:00,
2013-01-24 17:54:00,17.1,3.3,30.57,NW,313,0.0,1.0,54,0.00,,---,0.00,VWS V14.00,2013-01-24 22:54:00,
2013-01-24 17:59:00,17.0,3.2,30.57,NW,313,0.0,0.0,54,0.00,,---,0.00,VWS V14.00,2013-01-24 22:59:00,
2013-01-24 18:04:00,16.7,3.3,30.57,NW,313,0.0,1.0,55,0.00,,---,0.00,VWS V14.00,2013-01-24 23:04:00,
2013-01-24 18:09:00,16.3,3.8,30.57,NW,313,0.0,0.0,57,0.00,,---,0.00,VWS V14.00,2013-01-24 23:09:00,
2013-01-24 18:14:00,15.8,3.7,30.57,NW,313,0.0,0.0,58,0.00,,---,0.00,VWS V14.00,2013-01-24 23:14:00,
2013-01-24 18:19:00,15.2,3.8,30.58,NW,313,0.0,0.0,60,0.00,,---,0.00,VWS V14.00,2013-01-24 23:19:00,
2013-01-24 18:24:00,14.6,4.0,30.58,NW,313,0.0,1.0,62,0.00,,---,0.00,VWS V14.00,2013-01-24 23:24:00,
2013-01-24 18:29:00,14.1,4.2,30.59,NW,313,0.0,0.0,64,0.00,,---,0.00,VWS V14.00,2013-01-24 23:29:00,
2013-01-24 18:34:00,13.6,4.0,30.59,NW,313,0.0,2.0,65,0.00,,---,0.00,VWS V14.00,2013-01-24 23:34:00,
2013-01-24 18:39:00,13.3,4.4,30.59,NW,313,0.0,0.0,67,0.00,,---,0.00,VWS V14.00,2013-01-24 23:39:00,
2013-01-24 18:44:00,12.9,4.3,30.59,NW,313,0.0,0.0,68,0.00,,---,0.00,VWS V14.00,2013-01-24 23:44:00,
2013-01-24 18:49:00,12.7,4.5,30.59,NW,313,0.0,0.0,69,0.00,,---,0.00,VWS V14.00,2013-01-24 23:49:00,
2013-01-24 18:54:00,12.4,4.5,30.59,NW,313,0.0,0.0,70,0.00,,---,0.00,VWS V14.00,2013-01-24 23:54:00,
2013-01-24 18:59:00,12.2,4.3,30.59,NW,313,0.0,0.0,70,0.00,,---,0.00,VWS V14.00,2013-01-24 23:59:00,
2013-01-24 19:04:00,11.9,4.3,30.59,NW,313,0.0,0.0,71,0.00,,---,0.00,VWS V14.00,2013-01-25 00:04:00,
2013-01-24 19:09:00,11.7,4.4,30.59,NW,313,0.0,0.0,72,0.00,,---,0.00,VWS V14.00,2013-01-25 00:09:00,
2013-01-24 19:14:00,11.3,4.1,30.59,NW,313,0.0,0.0,72,0.00,,---,0.00,VWS V14.00,2013-01-25 00:14:00,
2013-01-24 19:19:00,10.9,4.0,30.59,NW,313,0.0,0.0,73,0.00,,---,0.00,VWS V14.00,2013-01-25 00:19:00,
2013-01-24 19:24:00,10.8,4.2,30.59,NW,313,0.0,0.0,74,0.00,,---,0.00,VWS V14.00,2013-01-25 00:24:00,
2013-01-24 19:29:00,10.5,4.2,30.59,NW,313,0.0,0.0,75,0.00,,---,0.00,VWS V14.00,2013-01-25 00:29:00,
2013-01-24 19:34:00,10.1,3.8,30.59,NW,313,0.0,0.0,75,0.00,,---,0.00,VWS V14.00,2013-01-25 00:34:00,
2013-01-24 19:39:00,10.0,4.0,30.60,NW,313,0.0,0.0,76,0.00,,---,0.00,VWS V14.00,2013-01-25 00:39:00,
2013-01-24 19:44:00,9.7,4.0,30.59,NW,313,0.0,0.0,77,0.00,,---,0.00,VWS V14.00,2013-01-25 00:44:00,
2013-01-24 19:49:00,9.5,3.8,30.59,NW,313,0.0,0.0,77,0.00,,---,0.00,VWS V14.00,2013-01-25 00:49:00,
2013-01-24 19:54:00,9.3,3.8,30.59,NW,313,0.0,0.0,78,0.00,,---,0.00,VWS V14.00,2013-01-25 00:54:00,
2013-01-24 19:59:00,9.1,3.7,30.59,NW,313,0.0,0.0,78,0.00,,---,0.00,VWS V14.00,2013-01-25 00:59:00,
2013-01-24 20:04:00,9.0,3.8,30.60,NW,313,0.0,0.0,79,0.00,,---,0.00,VWS V14.00,2013-01-25 01:04:00,
2013-01-24 20:09:00,9.0,3.8,30.59,NW,313,0.0,0.0,79,0.00,,---,0.00,VWS V14.00,2013-01-25 01:09:00,
2013-01-24 20:14:00,8.8,3.6,30.60,NW,313,0.0,0.0,79,0.00,,---,0.00,VWS V14.00,2013-01-25 01:14:00,
2013-01-24 20:19:00,8.6,3.4,30.60,NW,313,0.0,0.0,79,0.00,,---,0.00,VWS V14.00,2013-01-25 01:19:00,
2013-01-24 20:24:00,8.5,3.6,30.59,NW,313,0.0,0.0,80,0.00,,---,0.00,VWS V14.00,2013-01-25 01:24:00,
2013-01-24 20:29:00,8.5,3.6,30.60,NW,313,0.0,0.0,80,0.00,,---,0.00,VWS V14.00,2013-01-25 01:29:00,
2013-01-24 20:34:00,8.4,3.8,30.59,NW,313,0.0,0.0,81,0.00,,---,0.00,VWS V14.00,2013-01-25 01:34:00,
2013-01-24 20:39:00,8.4,3.8,30.59,NW,313,0.0,0.0,81,0.00,,---,0.00,VWS V14.00,2013-01-25 01:39:00,
2013-01-24 20:44:00,8.4,3.8,30.59,NW,313,0.0,0.0,81,0.00,,---,0.00,VWS V14.00,2013-01-25 01:44:00,
2013-01-24 20:49:00,8.3,3.7,30.59,NW,313,0.0,0.0,81,0.00,,---,0.00,VWS V14.00,2013-01-25 01:49:00,
2013-01-24 20:54:00,8.3,3.7,30.59,NW,313,0.0,0.0,81,0.00,,---,0.00,VWS V14.00,2013-01-25 01:54:00,
2013-01-24 20:59:00,8.1,3.5,30.59,NW,313,0.0,0.0,81,0.00,,---,0.00,VWS V14.00,2013-01-25 01:59:00,
2013-01-24 21:04:00,8.1,3.8,30.59,NW,313,0.0,0.0,82,0.00,,---,0.00,VWS V14.00,2013-01-25 02:04:00,
2013-01-24 21:09:00,8.1,3.8,30.59,NW,313,0.0,0.0,82,0.00,,---,0.00,VWS V14.00,2013-01-25 02:09:00,
2013-01-24 21:14:00,8.1,3.8,30.59,NW,313,0.0,0.0,82,0.00,,---,0.00,VWS V14.00,2013-01-25 02:14:00,
2013-01-24 21:19:00,8.0,3.7,30.59,NW,313,0.0,0.0,82,0.00,,---,0.00,VWS V14.00,2013-01-25 02:19:00,
2013-01-24 21:24:00,8.0,3.9,30.59,NW,313,0.0,0.0,83,0.00,,---,0.00,VWS V14.00,2013-01-25 02:24:00,
2013-01-24 21:29:00,7.9,6.1,30.59,NW,313,0.0,0.0,92,0.00,,---,0.00,VWS V14.00,2013-01-25 02:29:00,
2013-01-24 21:34:00,7.9,3.8,30.59,NW,313,0.0,0.0,83,0.00,,---,0.00,VWS V14.00,2013-01-25 02:34:00,
2013-01-24 21:39:00,7.9,3.8,30.59,NW,313,0.0,0.0,83,0.00,,---,0.00,VWS V14.00,2013-01-25 02:39:00,
2013-01-24 21:44:00,7.8,4.0,30.59,NW,313,0.0,0.0,84,0.00,,---,0.00,VWS V14.00,2013-01-25 02:44:00,
2013-01-24 21:49:00,7.8,4.0,30.58,NW,313,0.0,0.0,84,0.00,,---,0.00,VWS V14.00,2013-01-25 02:49:00,
2013-01-24 21:54:00,7.8,4.0,30.58,NW,313,0.0,0.0,84,0.00,,---,0.00,VWS V14.00,2013-01-25 02:54:00,
2013-01-24 21:59:00,7.8,4.0,30.58,NW,313,0.0,0.0,84,0.00,,---,0.00,VWS V14.00,2013-01-25 02:59:00,
2013-01-24 22:04:00,7.8,4.0,30.58,NW,313,0.0,0.0,84,0.00,,---,0.00,VWS V14.00,2013-01-25 03:04:00,
2013-01-24 22:09:00,7.8,4.2,30.58,NW,313,0.0,0.0,85,0.00,,---,0.00,VWS V14.00,2013-01-25 03:09:00,
2013-01-24 22:14:00,7.9,4.3,30.58,NW,313,0.0,0.0,85,0.00,,---,0.00,VWS V14.00,2013-01-25 03:14:00,
2013-01-24 22:19:00,7.9,4.3,30.58,NW,313,0.0,0.0,85,0.00,,---,0.00,VWS V14.00,2013-01-25 03:19:00,
2013-01-24 22:24:00,8.0,4.4,30.58,NW,313,0.0,0.0,85,0.00,,---,0.00,VWS V14.00,2013-01-25 03:24:00,
2013-01-24 22:29:00,8.0,4.4,30.58,NW,313,0.0,0.0,85,0.00,,---,0.00,VWS V14.00,2013-01-25 03:29:00,
2013-01-24 22:34:00,7.8,4.2,30.59,NW,313,0.0,0.0,85,0.00,,---,0.00,VWS V14.00,2013-01-25 03:34:00,
2013-01-24 22:39:00,7.8,4.2,30.59,NW,313,0.0,0.0,85,0.00,,---,0.00,VWS V14.00,2013-01-25 03:39:00,
2013-01-24 22:44:00,7.8,4.2,30.59,NW,313,0.0,0.0,85,0.00,,---,0.00,VWS V14.00,2013-01-25 03:44:00,
2013-01-24 22:49:00,7.8,4.2,30.59,NW,313,0.0,0.0,85,0.00,,---,0.00,VWS V14.00,2013-01-25 03:49:00,
2013-01-24 22:54:00,7.9,4.3,30.59,NW,313,0.0,0.0,85,0.00,,---,0.00,VWS V14.00,2013-01-25 03:54:00,
2013-01-24 22:59:00,7.9,4.3,30.58,NW,313,0.0,0.0,85,0.00,,---,0.00,VWS V14.00,2013-01-25 03:59:00,
2013-01-24 23:04:00,8.0,4.4,30.58,NW,313,0.0,0.0,85,0.00,,---,0.00,VWS V14.00,2013-01-25 04:04:00,
2013-01-24 23:09:00,8.1,4.8,30.58,NW,313,0.0,0.0,86,0.00,,---,0.00,VWS V14.00,2013-01-25 04:09:00,
2013-01-24 23:14:00,8.2,4.9,30.58,NW,313,0.0,0.0,86,0.00,,---,0.00,VWS V14.00,2013-01-25 04:14:00,
2013-01-24 23:19:00,8.3,5.0,30.58,NW,313,0.0,0.0,86,0.00,,---,0.00,VWS V14.00,2013-01-25 04:19:00,
2013-01-24 23:24:00,8.5,5.2,30.58,NW,313,0.0,0.0,86,0.00,,---,0.00,VWS V14.00,2013-01-25 04:24:00,
2013-01-24 23:29:00,8.6,5.3,30.58,NW,313,0.0,0.0,86,0.00,,---,0.00,VWS V14.00,2013-01-25 04:29:00,
2013-01-24 23:34:00,8.8,5.5,30.58,NW,313,0.0,0.0,86,0.00,,---,0.00,VWS V14.00,2013-01-25 04:34:00,
2013-01-24 23:39:00,8.9,5.6,30.58,NW,313,0.0,0.0,86,0.00,,---,0.00,VWS V14.00,2013-01-25 04:39:00,
2013-01-24 23:44:00,9.1,5.8,30.58,NW,313,0.0,0.0,86,0.00,,---,0.00,VWS V14.00,2013-01-25 04:44:00,
2013-01-24 23:49:00,9.3,6.0,30.59,NW,313,0.0,0.0,86,0.00,,---,0.00,VWS V14.00,2013-01-25 04:49:00,
2013-01-24 23:54:00,9.4,6.1,30.59,NW,313,0.0,0.0,86,0.00,,---,0.00,VWS V14.00,2013-01-25 04:54:00,
2013-01-24 23:59:00,9.6,6.3,30.59,NW,313,0.0,0.0,86,0.00,,---,0.00,VWS V14.00,2013-01-25 04:59:00,